owner,sensor,date,latitude,longitude,vertical_datum,direction_of_sea_water_velocity,sea_water_speed,upward_sea_water_velocity,qcFlag 
TABS,ioos:station:wmo:42044:1,2017-03-01T00:00:00Z,26.1914,-97.0507,2.0,28.87323209,14.10314149,-99999.0,'11111222,11111222,99999999' 
TABS,ioos:station:wmo:42044:1,2017-03-01T00:30:00Z,26.1914,-97.0507,2.0,22.29051497,14.57947187,-99999.0,'11111222,11111222,99999999' 
TABS,ioos:station:wmo:42044:1,2017-03-01T01:00:00Z,26.1914,-97.0507,2.0,26.71239417,13.92627732,-99999.0,'11111222,11111222,99999999' 
TABS,ioos:station:wmo:42044:1,2017-03-01T01:30:00Z,26.1914,-97.0507,2.0,15.57874221,13.51655651,-99999.0,'11111222,11111222,99999999' 
TABS,ioos:station:wmo:42044:1,2017-03-01T02:00:00Z,26.1914,-97.0507,2.0,18.17289537,13.8192981,-99999.0,'11111222,11111222,99999999' 
TABS,ioos:station:wmo:42044:1,2017-03-01T02:30:00Z,26.1914,-97.0507,2.0,16.48033964,11.77368676,-99999.0,'11111222,11111222,99999999' 
TABS,ioos:station:wmo:42044:1,2017-03-01T03:00:00Z,26.1914,-97.0507,2.0,15.77703793,15.41054834,-99999.0,'11111222,11111222,99999999' 
TABS,ioos:station:wmo:42044:1,2017-03-01T03:30:00Z,26.1914,-97.0507,2.0,7.222936542,15.27117874,-99999.0,'11111222,11111222,99999999' 
TABS,ioos:station:wmo:42044:1,2017-03-01T04:00:00Z,26.1914,-97.0507,2.0,13.01265631,16.83223396,-99999.0,'11111222,11111222,99999999' 
TABS,ioos:station:wmo:42044:1,2017-03-01T04:30:00Z,26.1914,-97.0507,2.0,16.13652492,18.13444237,-99999.0,'11111222,11111222,99999999' 
TABS,ioos:station:wmo:42044:1,2017-03-01T05:00:00Z,26.1914,-97.0507,2.0,5.98393904,18.99348573,-99999.0,'11111222,11111222,99999999' 
TABS,ioos:station:wmo:42044:1,2017-03-01T05:30:00Z,26.1914,-97.0507,2.0,7.248351918,18.46757429,-99999.0,'11111222,11111222,99999999' 
TABS,ioos:station:wmo:42044:1,2017-03-01T06:00:00Z,26.1914,-97.0507,2.0,7.010651739,21.71232369,-99999.0,'11111222,11111222,99999999' 
TABS,ioos:station:wmo:42044:1,2017-03-01T06:30:00Z,26.1914,-97.0507,2.0,11.68766804,20.53576636,-99999.0,'11111222,11111222,99999999' 
TABS,ioos:station:wmo:42044:1,2017-03-01T07:00:00Z,26.1914,-97.0507,2.0,14.0627488,21.11272839,-99999.0,'11111222,11111222,99999999' 
TABS,ioos:station:wmo:42044:1,2017-03-01T07:30:00Z,26.1914,-97.0507,2.0,13.38800351,22.71734139,-99999.0,'11111222,11111222,99999999' 
TABS,ioos:station:wmo:42044:1,2017-03-01T08:00:00Z,26.1914,-97.0507,2.0,16.17115457,23.37482834,-99999.0,'11111222,11111222,99999999' 
TABS,ioos:station:wmo:42044:1,2017-03-01T08:30:00Z,26.1914,-97.0507,2.0,18.7720994,23.11981185,-99999.0,'11111222,11111222,99999999' 
TABS,ioos:station:wmo:42044:1,2017-03-01T09:00:00Z,26.1914,-97.0507,2.0,14.68553547,23.54929511,-99999.0,'11111222,11111222,99999999' 
TABS,ioos:station:wmo:42044:1,2017-03-01T09:30:00Z,26.1914,-97.0507,2.0,14.02397229,22.32540481,-99999.0,'11111222,11111222,99999999' 
TABS,ioos:station:wmo:42044:1,2017-03-01T10:00:00Z,26.1914,-97.0507,2.0,15.92665837,20.80875297,-99999.0,'11111222,11111222,99999999' 
TABS,ioos:station:wmo:42044:1,2017-03-01T10:30:00Z,26.1914,-97.0507,2.0,16.0519914,21.44614184,-99999.0,'11111222,11111222,99999999' 
TABS,ioos:station:wmo:42044:1,2017-03-01T11:00:00Z,26.1914,-97.0507,2.0,23.10648328,19.56993613,-99999.0,'11111222,11111222,99999999' 
TABS,ioos:station:wmo:42044:1,2017-03-01T11:30:00Z,26.1914,-97.0507,2.0,24.20233513,19.41663462,-99999.0,'11111222,11111222,99999999' 
TABS,ioos:station:wmo:42044:1,2017-03-01T12:00:00Z,26.1914,-97.0507,2.0,22.64326618,17.06538602,-99999.0,'11111222,11111222,99999999' 
TABS,ioos:station:wmo:42044:1,2017-03-01T12:30:00Z,26.1914,-97.0507,2.0,26.74317521,20.15601399,-99999.0,'11111222,11111222,99999999' 
TABS,ioos:station:wmo:42044:1,2017-03-01T13:00:00Z,26.1914,-97.0507,2.0,30.86856082,17.5220347,-99999.0,'11111222,11111222,99999999' 
TABS,ioos:station:wmo:42044:1,2017-03-01T13:30:00Z,26.1914,-97.0507,2.0,35.53433962,19.21922215,-99999.0,'11111222,11111222,99999999' 
TABS,ioos:station:wmo:42044:1,2017-03-01T14:00:00Z,26.1914,-97.0507,2.0,26.87873822,15.52748853,-99999.0,'11111222,11111222,99999999' 
TABS,ioos:station:wmo:42044:1,2017-03-01T14:30:00Z,26.1914,-97.0507,2.0,23.4619553,14.29154295,-99999.0,'11111222,11111222,99999999' 
TABS,ioos:station:wmo:42044:1,2017-03-01T15:00:00Z,26.1914,-97.0507,2.0,23.68093172,14.0424072,-99999.0,'11111222,11111222,99999999' 
TABS,ioos:station:wmo:42044:1,2017-03-01T15:30:00Z,26.1914,-97.0507,2.0,26.26401924,14.4630875,-99999.0,'11111222,11111222,99999999' 
TABS,ioos:station:wmo:42044:1,2017-03-01T16:00:00Z,26.1914,-97.0507,2.0,23.64860514,12.04117104,-99999.0,'11111222,11111222,99999999' 
TABS,ioos:station:wmo:42044:1,2017-03-01T16:30:00Z,26.1914,-97.0507,2.0,21.79181651,10.90960128,-99999.0,'11111222,11111222,99999999' 
TABS,ioos:station:wmo:42044:1,2017-03-01T17:00:00Z,26.1914,-97.0507,2.0,13.23331246,13.32379075,-99999.0,'11111222,11111222,99999999' 
TABS,ioos:station:wmo:42044:1,2017-03-01T17:30:00Z,26.1914,-97.0507,2.0,29.35259241,11.77117241,-99999.0,'11111222,11111222,99999999' 
TABS,ioos:station:wmo:42044:1,2017-03-01T18:00:00Z,26.1914,-97.0507,2.0,30.41867096,12.97617047,-99999.0,'11111222,11111222,99999999' 
TABS,ioos:station:wmo:42044:1,2017-03-01T18:30:00Z,26.1914,-97.0507,2.0,20.32697669,10.82405192,-99999.0,'11111222,11111222,99999999' 
TABS,ioos:station:wmo:42044:1,2017-03-01T19:00:00Z,26.1914,-97.0507,2.0,16.03113598,9.197673619,-99999.0,'11133222,11111222,99999999' 
TABS,ioos:station:wmo:42044:1,2017-03-01T19:30:00Z,26.1914,-97.0507,2.0,35.22471731,7.871245137,-99999.0,'11133222,11111222,99999999' 
TABS,ioos:station:wmo:42044:1,2017-03-01T20:00:00Z,26.1914,-97.0507,2.0,39.98886423,7.609270662,-99999.0,'11133222,11111222,99999999' 
TABS,ioos:station:wmo:42044:1,2017-03-01T20:30:00Z,26.1914,-97.0507,2.0,36.26255734,7.16840289,-99999.0,'11133222,11111222,99999999' 
TABS,ioos:station:wmo:42044:1,2017-03-01T21:00:00Z,26.1914,-97.0507,2.0,12.57564655,5.327813811,-99999.0,'11133222,11111222,99999999' 
TABS,ioos:station:wmo:42044:1,2017-03-01T21:30:00Z,26.1914,-97.0507,2.0,11.2205081,6.269840508,-99999.0,'11133222,11111222,99999999' 
TABS,ioos:station:wmo:42044:1,2017-03-01T22:00:00Z,26.1914,-97.0507,2.0,32.4494276,6.019908637,-99999.0,'11133222,11111222,99999999' 
TABS,ioos:station:wmo:42044:1,2017-03-01T22:30:00Z,26.1914,-97.0507,2.0,24.53298086,6.936173297,-99999.0,'11133222,11111222,99999999' 
TABS,ioos:station:wmo:42044:1,2017-03-01T23:00:00Z,26.1914,-97.0507,2.0,13.33179569,8.283217974,-99999.0,'11133222,11111222,99999999' 
TABS,ioos:station:wmo:42044:1,2017-03-01T23:30:00Z,26.1914,-97.0507,2.0,353.5388372,4.17652966,-99999.0,'11133222,11111222,99999999' 
TABS,ioos:station:wmo:42044:1,2017-03-02T00:00:00Z,26.1914,-97.0507,2.0,327.8479905,4.547405854,-99999.0,'11133222,11111222,99999999' 
TABS,ioos:station:wmo:42044:1,2017-03-02T00:30:00Z,26.1914,-97.0507,2.0,307.1886856,4.318066697,-99999.0,'11133222,11111222,99999999' 
TABS,ioos:station:wmo:42044:1,2017-03-02T01:00:00Z,26.1914,-97.0507,2.0,301.2042363,6.13798827,-99999.0,'11133222,11111222,99999999' 
TABS,ioos:station:wmo:42044:1,2017-03-02T01:30:00Z,26.1914,-97.0507,2.0,274.9024674,5.500118181,-99999.0,'11133222,11111222,99999999' 
TABS,ioos:station:wmo:42044:1,2017-03-02T02:00:00Z,26.1914,-97.0507,2.0,268.2067258,6.072972913,-99999.0,'11133222,11111222,99999999' 
TABS,ioos:station:wmo:42044:1,2017-03-02T02:30:00Z,26.1914,-97.0507,2.0,245.9689023,5.967193645,-99999.0,'11133222,11111222,99999999' 
TABS,ioos:station:wmo:42044:1,2017-03-02T03:00:00Z,26.1914,-97.0507,2.0,231.8518032,10.31256515,-99999.0,'11111222,11111222,99999999' 
TABS,ioos:station:wmo:42044:1,2017-03-02T03:30:00Z,26.1914,-97.0507,2.0,226.2640688,12.49761977,-99999.0,'11111222,11111222,99999999' 
TABS,ioos:station:wmo:42044:1,2017-03-02T04:00:00Z,26.1914,-97.0507,2.0,221.0651845,15.66397778,-99999.0,'11111222,11111222,99999999' 
TABS,ioos:station:wmo:42044:1,2017-03-02T04:30:00Z,26.1914,-97.0507,2.0,218.592259,13.30601368,-99999.0,'11111222,11111222,99999999' 
TABS,ioos:station:wmo:42044:1,2017-03-02T05:00:00Z,26.1914,-97.0507,2.0,213.8002808,14.38062933,-99999.0,'11111222,11111222,99999999' 
TABS,ioos:station:wmo:42044:1,2017-03-02T05:30:00Z,26.1914,-97.0507,2.0,206.4867192,16.41275419,-99999.0,'11111222,11111222,99999999' 
TABS,ioos:station:wmo:42044:1,2017-03-02T06:00:00Z,26.1914,-97.0507,2.0,199.0792593,14.8984328,-99999.0,'11111222,11111222,99999999' 
TABS,ioos:station:wmo:42044:1,2017-03-02T06:30:00Z,26.1914,-97.0507,2.0,192.4817549,17.25790833,-99999.0,'11111222,11111222,99999999' 
TABS,ioos:station:wmo:42044:1,2017-03-02T07:00:00Z,26.1914,-97.0507,2.0,203.162672,18.99085306,-99999.0,'11111222,11111222,99999999' 
TABS,ioos:station:wmo:42044:1,2017-03-02T07:30:00Z,26.1914,-97.0507,2.0,189.6495611,22.60991375,-99999.0,'11111222,11111222,99999999' 
TABS,ioos:station:wmo:42044:1,2017-03-02T08:00:00Z,26.1914,-97.0507,2.0,189.4859728,19.71966024,-99999.0,'11111222,11111222,99999999' 
TABS,ioos:station:wmo:42044:1,2017-03-02T08:30:00Z,26.1914,-97.0507,2.0,185.4888227,23.4173803,-99999.0,'11111222,11111222,99999999' 
TABS,ioos:station:wmo:42044:1,2017-03-02T09:00:00Z,26.1914,-97.0507,2.0,183.4493649,25.09546971,-99999.0,'11111222,11111222,99999999' 
TABS,ioos:station:wmo:42044:1,2017-03-02T09:30:00Z,26.1914,-97.0507,2.0,186.5833865,26.25312362,-99999.0,'11111222,11111222,99999999' 
TABS,ioos:station:wmo:42044:1,2017-03-02T10:00:00Z,26.1914,-97.0507,2.0,183.1806746,29.91609099,-99999.0,'11111222,11111222,99999999' 
TABS,ioos:station:wmo:42044:1,2017-03-02T10:30:00Z,26.1914,-97.0507,2.0,188.1356644,27.98162969,-99999.0,'11111222,11111222,99999999' 
TABS,ioos:station:wmo:42044:1,2017-03-02T11:00:00Z,26.1914,-97.0507,2.0,174.5118332,30.21851254,-99999.0,'11111222,11111222,99999999' 
TABS,ioos:station:wmo:42044:1,2017-03-02T11:30:00Z,26.1914,-97.0507,2.0,183.5994629,27.55436263,-99999.0,'11111222,11111222,99999999' 
TABS,ioos:station:wmo:42044:1,2017-03-02T12:00:00Z,26.1914,-97.0507,2.0,178.7034881,32.2682584,-99999.0,'11111222,11111222,99999999' 
TABS,ioos:station:wmo:42044:1,2017-03-02T12:30:00Z,26.1914,-97.0507,2.0,175.3513972,32.20593268,-99999.0,'11111222,11111222,99999999' 
TABS,ioos:station:wmo:42044:1,2017-03-02T13:00:00Z,26.1914,-97.0507,2.0,184.2633926,31.87822141,-99999.0,'11111222,11111222,99999999' 
TABS,ioos:station:wmo:42044:1,2017-03-02T13:30:00Z,26.1914,-97.0507,2.0,176.0708689,31.52408762,-99999.0,'11111222,11111222,99999999' 
TABS,ioos:station:wmo:42044:1,2017-03-02T14:00:00Z,26.1914,-97.0507,2.0,178.5538934,35.27123049,-99999.0,'11111222,11111222,99999999' 
TABS,ioos:station:wmo:42044:1,2017-03-02T14:30:00Z,26.1914,-97.0507,2.0,179.5775121,33.92092127,-99999.0,'11111222,11111222,99999999' 
TABS,ioos:station:wmo:42044:1,2017-03-02T15:00:00Z,26.1914,-97.0507,2.0,183.8021001,32.42136641,-99999.0,'11111222,11111222,99999999' 
TABS,ioos:station:wmo:42044:1,2017-03-02T15:30:00Z,26.1914,-97.0507,2.0,181.4286363,35.29097335,-99999.0,'11111222,11111222,99999999' 
TABS,ioos:station:wmo:42044:1,2017-03-02T16:00:00Z,26.1914,-97.0507,2.0,177.5032028,35.35355711,-99999.0,'11111222,11111222,99999999' 
TABS,ioos:station:wmo:42044:1,2017-03-02T16:30:00Z,26.1914,-97.0507,2.0,184.3762847,37.60966498,-99999.0,'11111222,11111222,99999999' 
TABS,ioos:station:wmo:42044:1,2017-03-02T17:00:00Z,26.1914,-97.0507,2.0,178.5619146,34.67091721,-99999.0,'11111222,11111222,99999999' 
TABS,ioos:station:wmo:42044:1,2017-03-02T17:30:00Z,26.1914,-97.0507,2.0,180.9083813,34.68436103,-99999.0,'11111222,11111222,99999999' 
TABS,ioos:station:wmo:42044:1,2017-03-02T18:00:00Z,26.1914,-97.0507,2.0,176.6178591,36.95435698,-99999.0,'11111222,11111222,99999999' 
TABS,ioos:station:wmo:42044:1,2017-03-02T18:30:00Z,26.1914,-97.0507,2.0,179.2149668,35.77335601,-99999.0,'11111222,11111222,99999999' 
TABS,ioos:station:wmo:42044:1,2017-03-02T19:00:00Z,26.1914,-97.0507,2.0,181.0633438,36.09621864,-99999.0,'11111222,11111222,99999999' 
TABS,ioos:station:wmo:42044:1,2017-03-02T19:30:00Z,26.1914,-97.0507,2.0,180.9119133,36.43461678,-99999.0,'11111222,11111222,99999999' 
TABS,ioos:station:wmo:42044:1,2017-03-02T20:00:00Z,26.1914,-97.0507,2.0,179.4028179,36.47197966,-99999.0,'11111222,11111222,99999999' 
TABS,ioos:station:wmo:42044:1,2017-03-02T20:30:00Z,26.1914,-97.0507,2.0,179.5109813,38.68140768,-99999.0,'11111222,11111222,99999999' 
TABS,ioos:station:wmo:42044:1,2017-03-02T21:00:00Z,26.1914,-97.0507,2.0,176.4659763,36.99033387,-99999.0,'11111222,11111222,99999999' 
TABS,ioos:station:wmo:42044:1,2017-03-02T21:30:00Z,26.1914,-97.0507,2.0,181.7086892,37.5567038,-99999.0,'11111222,11111222,99999999' 
TABS,ioos:station:wmo:42044:1,2017-03-02T22:00:00Z,26.1914,-97.0507,2.0,180.6496736,38.79249541,-99999.0,'11111222,11111222,99999999' 
TABS,ioos:station:wmo:42044:1,2017-03-02T22:30:00Z,26.1914,-97.0507,2.0,182.9132275,40.92289457,-99999.0,'11111222,11111222,99999999' 
TABS,ioos:station:wmo:42044:1,2017-03-02T23:00:00Z,26.1914,-97.0507,2.0,187.2861158,40.52726983,-99999.0,'11111222,11111222,99999999' 
TABS,ioos:station:wmo:42044:1,2017-03-02T23:30:00Z,26.1914,-97.0507,2.0,177.4010387,41.02218912,-99999.0,'11111222,11111222,99999999' 
TABS,ioos:station:wmo:42044:1,2017-03-03T00:00:00Z,26.1914,-97.0507,2.0,184.6799676,39.3411769,-99999.0,'11111222,11111222,99999999' 
TABS,ioos:station:wmo:42044:1,2017-03-03T00:30:00Z,26.1914,-97.0507,2.0,174.7187899,41.93801617,-99999.0,'11111222,11111222,99999999' 
TABS,ioos:station:wmo:42044:1,2017-03-03T01:00:00Z,26.1914,-97.0507,2.0,185.6596288,41.57267011,-99999.0,'11111222,11111222,99999999' 
TABS,ioos:station:wmo:42044:1,2017-03-03T01:30:00Z,26.1914,-97.0507,2.0,179.2595408,41.0234238,-99999.0,'11111222,11111222,99999999' 
TABS,ioos:station:wmo:42044:1,2017-03-03T02:00:00Z,26.1914,-97.0507,2.0,175.209747,41.43471612,-99999.0,'11111222,11111222,99999999' 
TABS,ioos:station:wmo:42044:1,2017-03-03T02:30:00Z,26.1914,-97.0507,2.0,183.1945184,36.24633085,-99999.0,'11111222,11111222,99999999' 
TABS,ioos:station:wmo:42044:1,2017-03-03T03:00:00Z,26.1914,-97.0507,2.0,184.1015623,40.40349119,-99999.0,'11111222,11111222,99999999' 
TABS,ioos:station:wmo:42044:1,2017-03-03T03:30:00Z,26.1914,-97.0507,2.0,182.2795355,37.96004478,-99999.0,'11111222,11111222,99999999' 
TABS,ioos:station:wmo:42044:1,2017-03-03T04:00:00Z,26.1914,-97.0507,2.0,181.867464,35.89907102,-99999.0,'11111222,11111222,99999999' 
TABS,ioos:station:wmo:42044:1,2017-03-03T04:30:00Z,26.1914,-97.0507,2.0,176.9569935,43.14082174,-99999.0,'11111222,11111222,99999999' 
TABS,ioos:station:wmo:42044:1,2017-03-03T05:00:00Z,26.1914,-97.0507,2.0,180.9334785,39.27521483,-99999.0,'11111222,11111222,99999999' 
TABS,ioos:station:wmo:42044:1,2017-03-03T05:30:00Z,26.1914,-97.0507,2.0,182.5384787,37.47678215,-99999.0,'11111222,11111222,99999999' 
TABS,ioos:station:wmo:42044:1,2017-03-03T06:00:00Z,26.1914,-97.0507,2.0,180.029461,38.62000518,-99999.0,'11111222,11111222,99999999' 
TABS,ioos:station:wmo:42044:1,2017-03-03T06:30:00Z,26.1914,-97.0507,2.0,186.0477125,33.12436716,-99999.0,'11111222,11111222,99999999' 
TABS,ioos:station:wmo:42044:1,2017-03-03T07:00:00Z,26.1914,-97.0507,2.0,188.665511,33.5833828,-99999.0,'11111222,11111222,99999999' 
TABS,ioos:station:wmo:42044:1,2017-03-03T07:30:00Z,26.1914,-97.0507,2.0,189.8104628,37.85356654,-99999.0,'11111222,11111222,99999999' 
TABS,ioos:station:wmo:42044:1,2017-03-03T08:00:00Z,26.1914,-97.0507,2.0,182.0799882,35.26323865,-99999.0,'11111222,11111222,99999999' 
TABS,ioos:station:wmo:42044:1,2017-03-03T08:30:00Z,26.1914,-97.0507,2.0,179.2632176,35.78295684,-99999.0,'11111222,11111222,99999999' 
TABS,ioos:station:wmo:42044:1,2017-03-03T09:00:00Z,26.1914,-97.0507,2.0,184.6641336,32.58792568,-99999.0,'11111222,11111222,99999999' 
TABS,ioos:station:wmo:42044:1,2017-03-03T09:30:00Z,26.1914,-97.0507,2.0,187.5083696,31.68166189,-99999.0,'11111222,11111222,99999999' 
TABS,ioos:station:wmo:42044:1,2017-03-03T10:00:00Z,26.1914,-97.0507,2.0,192.2533032,32.51065825,-99999.0,'11111222,11111222,99999999' 
TABS,ioos:station:wmo:42044:1,2017-03-03T10:30:00Z,26.1914,-97.0507,2.0,187.9214511,31.49050174,-99999.0,'11111222,11111222,99999999' 
TABS,ioos:station:wmo:42044:1,2017-03-03T11:00:00Z,26.1914,-97.0507,2.0,187.9211236,32.21741299,-99999.0,'11111222,11111222,99999999' 
TABS,ioos:station:wmo:42044:1,2017-03-03T11:30:00Z,26.1914,-97.0507,2.0,183.0572394,31.68510218,-99999.0,'11111222,11111222,99999999' 
TABS,ioos:station:wmo:42044:1,2017-03-03T12:00:00Z,26.1914,-97.0507,2.0,185.8594285,32.12786952,-99999.0,'11111222,11111222,99999999' 
TABS,ioos:station:wmo:42044:1,2017-03-03T12:30:00Z,26.1914,-97.0507,2.0,187.0064648,29.42978423,-99999.0,'11111222,11111222,99999999' 
TABS,ioos:station:wmo:42044:1,2017-03-03T13:00:00Z,26.1914,-97.0507,2.0,182.4845412,31.13927745,-99999.0,'11111222,11111222,99999999' 
TABS,ioos:station:wmo:42044:1,2017-03-03T13:30:00Z,26.1914,-97.0507,2.0,173.4444007,29.69414252,-99999.0,'11111222,11111222,99999999' 
TABS,ioos:station:wmo:42044:1,2017-03-03T14:00:00Z,26.1914,-97.0507,2.0,177.8891117,28.50934233,-99999.0,'11111222,11111222,99999999' 
TABS,ioos:station:wmo:42044:1,2017-03-03T14:30:00Z,26.1914,-97.0507,2.0,185.2216317,26.47989804,-99999.0,'11111222,11111222,99999999' 
TABS,ioos:station:wmo:42044:1,2017-03-03T15:00:00Z,26.1914,-97.0507,2.0,186.221115,27.68303452,-99999.0,'11111222,11111222,99999999' 
TABS,ioos:station:wmo:42044:1,2017-03-03T15:30:00Z,26.1914,-97.0507,2.0,185.6060704,27.33073179,-99999.0,'11111222,11111222,99999999' 
TABS,ioos:station:wmo:42044:1,2017-03-03T16:00:00Z,26.1914,-97.0507,2.0,182.3936631,27.05360974,-99999.0,'11111222,11111222,99999999' 
TABS,ioos:station:wmo:42044:1,2017-03-03T16:30:00Z,26.1914,-97.0507,2.0,179.8993415,28.52004383,-99999.0,'11111222,11111222,99999999' 
TABS,ioos:station:wmo:42044:1,2017-03-03T17:00:00Z,26.1914,-97.0507,2.0,181.4863671,28.9097302,-99999.0,'11111222,11111222,99999999' 
TABS,ioos:station:wmo:42044:1,2017-03-03T17:30:00Z,26.1914,-97.0507,2.0,178.5874375,23.93727219,-99999.0,'11111222,11111222,99999999' 
TABS,ioos:station:wmo:42044:1,2017-03-03T18:00:00Z,26.1914,-97.0507,2.0,184.2937942,26.44422999,-99999.0,'11111222,11111222,99999999' 
TABS,ioos:station:wmo:42044:1,2017-03-03T18:30:00Z,26.1914,-97.0507,2.0,189.3029986,24.86708668,-99999.0,'11111222,11111222,99999999' 
TABS,ioos:station:wmo:42044:1,2017-03-03T19:00:00Z,26.1914,-97.0507,2.0,180.6338657,25.30154936,-99999.0,'11111222,11111222,99999999' 
TABS,ioos:station:wmo:42044:1,2017-03-03T19:30:00Z,26.1914,-97.0507,2.0,184.3714711,24.40099383,-99999.0,'11111222,11111222,99999999' 
TABS,ioos:station:wmo:42044:1,2017-03-03T20:00:00Z,26.1914,-97.0507,2.0,181.3621449,26.07737142,-99999.0,'11111222,11111222,99999999' 
TABS,ioos:station:wmo:42044:1,2017-03-03T20:30:00Z,26.1914,-97.0507,2.0,183.4075309,26.07610784,-99999.0,'11111222,11111222,99999999' 
TABS,ioos:station:wmo:42044:1,2017-03-03T21:00:00Z,26.1914,-97.0507,2.0,185.4291264,24.73095227,-99999.0,'11111222,11111222,99999999' 
TABS,ioos:station:wmo:42044:1,2017-03-03T21:30:00Z,26.1914,-97.0507,2.0,185.9450277,22.10891675,-99999.0,'11111222,11111222,99999999' 
TABS,ioos:station:wmo:42044:1,2017-03-03T22:00:00Z,26.1914,-97.0507,2.0,186.6312382,25.19859123,-99999.0,'11111222,11111222,99999999' 
TABS,ioos:station:wmo:42044:1,2017-03-03T22:30:00Z,26.1914,-97.0507,2.0,179.2156381,23.3821898,-99999.0,'11111222,11111222,99999999' 
TABS,ioos:station:wmo:42044:1,2017-03-03T23:00:00Z,26.1914,-97.0507,2.0,180.3962207,27.46065731,-99999.0,'11111222,11111222,99999999' 
TABS,ioos:station:wmo:42044:1,2017-03-03T23:30:00Z,26.1914,-97.0507,2.0,182.5243809,27.6968825,-99999.0,'11111222,11111222,99999999' 
TABS,ioos:station:wmo:42044:1,2017-03-04T00:00:00Z,26.1914,-97.0507,2.0,183.0551292,24.76520341,-99999.0,'11111222,11111222,99999999' 
TABS,ioos:station:wmo:42044:1,2017-03-04T00:30:00Z,26.1914,-97.0507,2.0,179.5726961,26.83074542,-99999.0,'11111222,11111222,99999999' 
TABS,ioos:station:wmo:42044:1,2017-03-04T01:00:00Z,26.1914,-97.0507,2.0,181.8820676,25.57379909,-99999.0,'11111222,11111222,99999999' 
TABS,ioos:station:wmo:42044:1,2017-03-04T01:30:00Z,26.1914,-97.0507,2.0,179.90734,24.79003227,-99999.0,'11111222,11111222,99999999' 
TABS,ioos:station:wmo:42044:1,2017-03-04T02:00:00Z,26.1914,-97.0507,2.0,184.3648855,28.77346347,-99999.0,'11111222,11111222,99999999' 
TABS,ioos:station:wmo:42044:1,2017-03-04T02:30:00Z,26.1914,-97.0507,2.0,181.8279995,24.76260487,-99999.0,'11111222,11111222,99999999' 
TABS,ioos:station:wmo:42044:1,2017-03-04T03:00:00Z,26.1914,-97.0507,2.0,179.5700237,25.33071258,-99999.0,'11111222,11111222,99999999' 
TABS,ioos:station:wmo:42044:1,2017-03-04T03:30:00Z,26.1914,-97.0507,2.0,185.4366076,31.02959394,-99999.0,'11111222,11111222,99999999' 
TABS,ioos:station:wmo:42044:1,2017-03-04T04:00:00Z,26.1914,-97.0507,2.0,182.4256021,28.11519518,-99999.0,'11111222,11111222,99999999' 
TABS,ioos:station:wmo:42044:1,2017-03-04T04:30:00Z,26.1914,-97.0507,2.0,182.1332159,25.78787506,-99999.0,'11111222,11111222,99999999' 
TABS,ioos:station:wmo:42044:1,2017-03-04T05:00:00Z,26.1914,-97.0507,2.0,185.6106859,28.02426984,-99999.0,'11111222,11111222,99999999' 
TABS,ioos:station:wmo:42044:1,2017-03-04T05:30:00Z,26.1914,-97.0507,2.0,183.4933562,32.82099328,-99999.0,'11111222,11111222,99999999' 
TABS,ioos:station:wmo:42044:1,2017-03-04T06:00:00Z,26.1914,-97.0507,2.0,187.9955165,32.56659945,-99999.0,'11111222,11111222,99999999' 
TABS,ioos:station:wmo:42044:1,2017-03-04T06:30:00Z,26.1914,-97.0507,2.0,188.4146659,31.29693276,-99999.0,'11111222,11111222,99999999' 
TABS,ioos:station:wmo:42044:1,2017-03-04T07:00:00Z,26.1914,-97.0507,2.0,187.4364091,33.06814933,-99999.0,'11111222,11111222,99999999' 
TABS,ioos:station:wmo:42044:1,2017-03-04T07:30:00Z,26.1914,-97.0507,2.0,184.6086301,30.73939655,-99999.0,'11111222,11111222,99999999' 
TABS,ioos:station:wmo:42044:1,2017-03-04T08:00:00Z,26.1914,-97.0507,2.0,186.3270134,29.30852777,-99999.0,'11111222,11111222,99999999' 
TABS,ioos:station:wmo:42044:1,2017-03-04T08:30:00Z,26.1914,-97.0507,2.0,188.3514113,29.26029733,-99999.0,'11111222,11111222,99999999' 
TABS,ioos:station:wmo:42044:1,2017-03-04T09:00:00Z,26.1914,-97.0507,2.0,187.270893,31.1303389,-99999.0,'11111222,11111222,99999999' 
TABS,ioos:station:wmo:42044:1,2017-03-04T09:30:00Z,26.1914,-97.0507,2.0,187.5577456,32.00807711,-99999.0,'11111222,11111222,99999999' 
TABS,ioos:station:wmo:42044:1,2017-03-04T10:00:00Z,26.1914,-97.0507,2.0,187.6205917,31.82106221,-99999.0,'11111222,11111222,99999999' 
TABS,ioos:station:wmo:42044:1,2017-03-04T10:30:00Z,26.1914,-97.0507,2.0,182.392416,32.0979828,-99999.0,'11111222,11111222,99999999' 
TABS,ioos:station:wmo:42044:1,2017-03-04T11:00:00Z,26.1914,-97.0507,2.0,188.4780109,33.98135077,-99999.0,'11111222,11111222,99999999' 
TABS,ioos:station:wmo:42044:1,2017-03-04T11:30:00Z,26.1914,-97.0507,2.0,195.4997875,30.57189068,-99999.0,'11111222,11111222,99999999' 
TABS,ioos:station:wmo:42044:1,2017-03-04T12:00:00Z,26.1914,-97.0507,2.0,198.4893145,33.17230773,-99999.0,'11111222,11111222,99999999' 
TABS,ioos:station:wmo:42044:1,2017-03-04T12:30:00Z,26.1914,-97.0507,2.0,200.9213174,32.28879837,-99999.0,'11111222,11111222,99999999' 
TABS,ioos:station:wmo:42044:1,2017-03-04T13:00:00Z,26.1914,-97.0507,2.0,198.6615089,32.75196635,-99999.0,'11111222,11111222,99999999' 
TABS,ioos:station:wmo:42044:1,2017-03-04T13:30:00Z,26.1914,-97.0507,2.0,199.3117399,33.26157092,-99999.0,'11111222,11111222,99999999' 
TABS,ioos:station:wmo:42044:1,2017-03-04T14:00:00Z,26.1914,-97.0507,2.0,196.2111793,31.95041158,-99999.0,'11111222,11111222,99999999' 
TABS,ioos:station:wmo:42044:1,2017-03-04T14:30:00Z,26.1914,-97.0507,2.0,204.1817382,33.12692711,-99999.0,'11111222,11111222,99999999' 
TABS,ioos:station:wmo:42044:1,2017-03-04T15:00:00Z,26.1914,-97.0507,2.0,205.587582,33.04047366,-99999.0,'11111222,11111222,99999999' 
TABS,ioos:station:wmo:42044:1,2017-03-04T15:30:00Z,26.1914,-97.0507,2.0,202.4196913,31.3063444,-99999.0,'11111222,11111222,99999999' 
TABS,ioos:station:wmo:42044:1,2017-03-04T16:00:00Z,26.1914,-97.0507,2.0,207.2084313,31.45004452,-99999.0,'11111222,11111222,99999999' 